User: anonymous
Location: Unspecified
(42.1900°N, 71.3291°W)
Time: 10:52:27
(UTC-04:00)
Language:

Resurs 1-4 Rocket - Orbit

View from above orbital plane
View from above orbital plane
View from above satellite
View from above satellite

Ground track
Ground track

The orbit data is extracted from the following two-line orbital elements,

1 25400U 98043G   14237.14648296 -.00000019  00000-0  93542-5 0  7337
2 25400 098.3413 210.7216 0010912 070.0088 290.2267 14.25253743838762
Epoch (UTC): 25 August 2014 03:30:56
Eccentricity: 0.0010912
inclination: 98.3413°
perigee height: 800 km
apogee height: 815 km
right ascension of ascending node: 210.7216°
argument of perigee: 70.0088°
revolutions per day: 14.25253743
mean anomaly at epoch: 290.2267°
orbit number at epoch: 83876

The dashed part of the orbit path shows where the satellite is in the earth's shadow,  

DLR